Location: Helsinki
(60.1699°N, 24.9384°E)
Time: 18:04:07
(UTC+03:00)

Vanguard 2 Rocket - All Passes

Search period start: 21 September 2023 00:00
Search period end: 01 October 2023 00:00
Orbit: 553 x 3312 km, 32.9° (Epoch: 20 September)

Date Brightness Start Highest point End Pass type
(mag) Time Alt. Az. Time Alt. Az. Time Alt. Az.
21 Sep - 13:18:49 10° S 13:29:18 17° SSE 13:38:49 10° ESE daylight
21 Sep - 15:29:16 10° SW 15:42:22 23° S 15:53:02 10° SE daylight
21 Sep - 17:44:20 10° WSW 17:55:03 20° SSW 18:03:30 10° SSE daylight
22 Sep - 12:19:19 10° SSE 12:27:15 14° SE 12:34:52 10° ESE daylight
22 Sep - 14:26:56 10° SSW 14:40:07 23° SSE 14:51:28 10° SE daylight
22 Sep - 16:40:32 10° SW 16:53:14 23° SSW 17:03:18 10° SSE daylight
22 Sep - 18:58:31 10° WSW 19:05:09 14° SW 19:10:46 10° SSW daylight
23 Sep - 13:25:22 10° SSW 13:37:50 21° SSE 13:49:14 10° ESE daylight
23 Sep - 15:37:18 10° SW 15:51:06 25° S 16:02:28 10° SE daylight
23 Sep - 17:53:19 10° WSW 18:03:42 18° SSW 18:12:06 10° S daylight
24 Sep - 12:24:45 10° S 12:35:38 18° SSE 12:46:07 10° ESE daylight
24 Sep - 14:34:42 10° SW 14:48:47 25° S 15:01:03 10° SE daylight
24 Sep - 16:49:11 10° WSW 17:01:53 22° SSW 17:12:12 10° SSE daylight
24 Sep - 19:09:25 10° WSW 19:13:33 11° SW 19:17:19 10° SSW daylight
25 Sep - 11:25:41 10° SSE 11:33:37 14° SE 11:41:35 10° ESE daylight
25 Sep - 13:32:45 10° SSW 13:46:23 24° SSE 13:59:01 10° ESE daylight
25 Sep - 15:45:44 10° SW 15:59:45 25° S 16:11:34 10° SE daylight
25 Sep - 18:02:46 10° WSW 18:12:10 16° SW 18:20:07 10° S daylight
26 Sep - 12:31:35 10° SSW 12:44:01 21° SSE 12:56:17 10° ESE daylight
26 Sep - 14:42:54 10° SW 14:57:23 26° S 15:10:17 10° SE daylight
26 Sep - 16:58:11 10° WSW 17:10:25 21° SSW 17:20:41 10° SSE daylight
27 Sep - 11:31:26 10° S 11:41:51 18° SSE 11:52:37 10° ESE daylight
27 Sep - 13:40:43 10° SW 13:54:54 26° S 14:08:24 10° SE daylight
27 Sep - 15:54:29 10° WSW 16:08:18 24° SSW 16:20:18 10° SSE daylight
27 Sep - 18:12:59 10° WSW 18:20:29 14° SW 18:27:09 10° SSW daylight
28 Sep - 10:33:00 10° SSE 10:39:58 13° SE 10:47:18 10° ESE daylight
28 Sep - 12:39:12 10° SSW 12:52:27 24° SSE 13:05:53 10° ESE daylight
28 Sep - 14:51:28 10° SW 15:05:57 26° S 15:19:11 10° SE daylight
28 Sep - 17:07:36 10° WSW 17:18:48 19° SSW 17:28:35 10° S daylight
29 Sep - 11:38:30 10° SSW 11:50:10 21° SSE 12:02:36 10° ESE daylight
29 Sep - 13:49:06 10° SW 14:03:26 27° S 14:17:27 10° SE daylight
29 Sep - 16:03:34 10° WSW 16:16:46 23° SSW 16:28:36 10° SSE daylight
29 Sep - 18:25:28 10° WSW 18:28:39 11° SW 18:31:41 10° SW daylight
30 Sep - 10:38:52 10° S 10:48:09 17° SE 10:58:18 10° ESE daylight
30 Sep - 12:47:22 10° SW 13:00:55 26° SSE 13:15:04 10° ESE daylight
30 Sep - 15:00:21 10° WSW 15:14:26 25° SSW 15:27:44 10° SSE daylight
30 Sep - 17:17:40 10° WSW 17:27:04 16° SW 17:35:38 10° S daylight
